Regional Weather Roundup
Issued by NWS

Home | Current Version | Previous Version | Text Only | Print | Product List | Glossary On
Versions: 1 2 3 4 5 6 7 8 9 10 11 12 13 14 15 16 17 18 19 20 21 22 23 24 25 26 27 28 29 30 31 32 33 34 35 36 37 38 39 40 41 42 43 44 45 46 47 48 49 50
915
ASUS43 KFSD 241510
RWRSD

WEATHER ROUNDUP FOR SOUTH DAKOTA
NATIONAL WEATHER SERVICE SIOUX FALLS SD
1000 AM CDT WED MAY 24 2017

NOTE: "FAIR" INDICATES FEW OR NO CLOUDS BELOW 12,000 FEET WITH NO
SIGNIFICANT WEATHER AND/OR OBSTRUCTIONS TO VISIBILITY.


SDZ001>005-009-010-012>017-241600-
NORTHWEST AND NORTH CENTRAL SOUTH DAKOTA

CITY           SKY/WX    TMP DP  RH WIND       PRES   REMARKS
BUFFALO          N/A     59  38  45 SE25G37   29.55F
FAITH            N/A     55  39  54 S21       29.70F
MOBRIDGE       SUNNY     55  40  56 S13       29.72F
$$

SDZ012>016-024>037-041>051-057-063-072>074-241600-
SOUTHWEST AND SOUTH CENTRAL SOUTH DAKOTA

CITY           SKY/WX    TMP DP  RH WIND       PRES   REMARKS
RAPID CTY ARPT SUNNY     55  40  56 S20       29.69F
PIERRE         SUNNY     52  41  66 SE6       29.76F
CUSTER         SUNNY     51  32  48 VRB6      29.73F
ELLSWORTH AFB  SUNNY     56  39  52 S18       29.66F
PHILIP         SUNNY     57  39  51 S10       29.74F
PINE RIDGE     SUNNY     56  41  57 S15       29.74F
SPEARFISH      FAIR      59  45  58 NE7       29.63F
WINNER         FAIR      54  42  64 E5        29.80F
$$

SDZ004>011-016>023-039-040-241600-
NORTHEAST SOUTH DAKOTA

CITY           SKY/WX    TMP DP  RH WIND       PRES   REMARKS
ABERDEEN       PTSUNNY   57  39  51 S13       29.80F
WATERTOWN      PTSUNNY   53  45  74 MISG      29.79F
BROOKINGS      PTSUNNY   53  45  74 VRB3      29.80F
SISSETON         N/A     52  47  83 SE3       29.80F
$$

SDZ017-020-022-023-036>040-048>070-241600-
SOUTHEAST SOUTH DAKOTA

CITY           SKY/WX    TMP DP  RH WIND       PRES   REMARKS
SIOUX FALLS    CLOUDY    53  48  83 NE9       29.80F
HURON          PTSUNNY   53  46  77 S5        29.80F
CHAMBERLAIN    MOSUNNY   55  46  73 SE5       29.80F
MITCHELL       SUNNY     54  47  77 E3        29.81F
YANKTON        MOSUNNY   54  48  80 N5        29.81S
$$

ABBREVIATIONS USED IN REMARKS
   TC - TEMPERATURE IN CELSIUS
  WCI - WIND CHILL INDEX
   HX - HEAT INDEX
  VSB - VISIBILITY





USA.gov is the U.S. government's official web portal to all federal, state and local government web resources and services.